www.pogodaiklimat.ru

Погода и климат >> Архив погоды >> Австралия >> Halls Creek Airport


ПОГОДА в Halls Creek Airport

  • Прогноз погоды в Halls Creek Airport
  • Монитор погоды в Halls Creek Airport
  • Климат города

АРХИВ ПОГОДЫ в Halls Creek Airport

Время (UTC), дата Ветер
(напр.,м/с)
 
Видим.   Явления Облачность Т
(С)
Тd
(С)
f
(%)
Тe
(С)
Тes
(С)
Комфортность P
(гПа)
Po
(гПа)
Тmin
(С)
Tmax
(С)
R
(мм)
R24
(мм)
S
(см)
10 13.02 З 2 н/о н/о +27.4 +21.0 68 +34 +34 очень
душно
1004.1 959.2
12 13.02 ЮЗ 3 н/о н/о +25.7 +21.8 79 +33 +33 очень
душно
1006.7 961.7
13 13.02 З 3 н/о 5/0
[]
+26.3 +21.7 76 +34 +34 очень
душно
1007.1 962.1 +35.9
15 13.02 С 3 н/о н/о +27.7 +20.5 65 +34 +34 очень
душно
1007.2 962.2
16 13.02 ЮЗ 2 н/о 3/0
[]
+26.6 +19.2 64 +32 +32 очень
душно
1006.3 961.3
18 13.02 З 2 н/о н/о +24.3 +20.8 81 +30 +30 очень
душно
1006.2 961.2
19 13.02 ЮЗ 3 н/о 1/0
[]
+24.4 +20.1 77 +30 +30 очень
душно
1006.2 961.2
21 13.02 штиль 0 н/о н/о +23.7 +20.6 83 +30 +30 очень
душно
1006.5 961.5
22 13.02 СВ 1 н/о н/о +23.9 +21.6 87 +31 +31 очень
душно
1007.6 962.5
00 14.02 СВ 3 н/о н/о +29.6 +21.5 62 +38 +38 очень
душно
1008.3 963.2
01 14.02 СВ 4 н/о н/о +31.3 +20.9 54 +39 +39 очень
душно
1008.5 963.4 +23.6
03 14.02 В 4 н/о н/о +34.1 +20.1 44 +40 +40 очень
душно
1007.6 962.5
04 14.02 В 5 н/о 1/1 1500 м
[]
+34.6 +19.0 40 +40 +51 опасность
солнечного
удара
1006.6 961.6
06 14.02 В 5 н/о н/о +34.1 +19.4 42 +39 +39 очень
душно
1004.6 959.7
07 14.02 В 7 н/о н/о +33.9 +18.8 41 +39 +39 очень
душно
1004.3 959.4
09 14.02 В 7 н/о н/о +33.0 +19.1 44 +38 +38 очень
душно
1004.9 960.0
10 14.02 СВ 6 н/о 9/0 2000 м
[]
+27.7 +21.7 70 +36 +36 очень
душно
1005.9 960.9
12 14.02 В 6 н/о н/о +28.1 +20.9 65 +35 +35 очень
душно
1007.5 962.4
13 14.02 В 6 н/о 4/0
[]
+28.4 +20.4 62 +35 +35 очень
душно
1007.9 962.8 +35.1
15 14.02 СВ 7 н/о н/о +24.0 +21.1 84 +30 +30 очень
душно
1009.2 964.1
16 14.02 СВ 5 н/о 10/0 2000 м
[]
+24.5 +21.8 85 +31 +31 очень
душно
1008.9 963.8
18 14.02 В 6 н/о н/о +24.2 +21.5 85 +31 +31 очень
душно
1007.1 962.1
19 14.02 В 8 н/о {туман} 10/10 300 м
[]
+24.2 +20.7 81 +30 +30 очень
душно
1007.9 962.8
21 14.02 В 6 н/о н/о +23.6 +21.3 87 +30 +30 очень
душно
1008.2 963.1
22 14.02 В 5 н/о 10/10 300 м
[]
+24.0 +21.3 85 +30 +30 очень
душно
1009.1 964.0
00 15.02 В 8 н/о н/о +25.7 +21.1 76 +32 +32 очень
душно
1009.6 964.5
01 15.02 В 8 н/о {туман} 10/10 600 м
[]
+26.9 +21.2 71 +34 +34 очень
душно
1009.3 964.2 +23.3
03 15.02 В 9 н/о н/о +28.0 +21.1 66 +35 +35 очень
душно
1008.6 963.5
04 15.02 В 8 н/о слабый дождь 10/10 600 м
[]
+26.8 +21.6 73 +34 +34 очень
душно
1008.5 963.4
06 15.02 СВ 10 н/о н/о +29.1 +20.5 60 +36 +36 очень
душно
1007.2 962.2
07 15.02 СВ 8 н/о 10/10 600 м
[]
+28.6 +20.9 63 +36 +36 очень
душно
1006.4 961.4
09 15.02 СВ 8 н/о н/о +27.6 +20.9 67 +35 +35 очень
душно
1006.5 961.5
10 15.02 СВ 6 н/о 9/0
[]
+27.0 +21.3 71 +34 +34 очень
душно
1007.2 962.2
12 15.02 В 4 н/о н/о +25.7 +22.4 82 +34 +34 очень
душно
1009.3 964.2
13 15.02 С 4 н/о ливневой дождь {туман} 10/10 300 м
[]
+24.1 +22.4 90 +31 +31 очень
душно
1009.9 964.7 +29.8
15 15.02 СВ 3 н/о н/о +22.7 +22.4 98 +31 +31 очень
душно
1010.2 965.0
16 15.02 СВ 6 н/о дождь {туман} 10/10 1500 м
[]
+21.8 +21.1 96 +28 +28 душно 1010.4 965.2
18 15.02 В 4 н/о н/о +22.4 +21.4 94 +29 +29 очень
душно
1008.9 963.8
19 15.02 В 4 н/о {туман} 10/0
[]
+22.4 +21.2 93 +29 +29 очень
душно
1008.6 963.5
21 15.02 В 3 н/о н/о +22.6 +21.6 94 +30 +30 очень
душно
1009.4 964.3
22 15.02 В 5 н/о в посл. час дождь со снегом {туман} 10/0
[]
+22.8 +21.6 93 +30 +31 очень
душно
1009.8 964.6
00 16.02 В 6 н/о н/о +24.7 +21.8 84 +32 +32 очень
душно
1011.0 965.8
01 16.02 В 6 н/о {туман} 10/10 300 м
[]
+24.9 +21.4 81 +32 +32 очень
душно
1010.8 965.6 +21.9
03 16.02 СВ 6 н/о н/о +26.3 +21.1 73 +33 +33 очень
душно
1009.6 964.5
04 16.02 СВ 4 н/о 9/9 600 м
[]
+26.8 +20.9 70 +34 +35 очень
душно
1009.0 963.9
06 16.02 В 6 н/о н/о +27.7 +20.5 65 +34 +34 очень
душно
1007.9 962.8
07 16.02 СВ 4 н/о слабый дождь 5/5 600 м
[]
+27.2 +21.7 72 +35 +38 очень
душно
1007.1 962.1
09 16.02 СВ 3 н/о н/о +23.7 +19.6 78 +29 +29 душно 1007.5 962.4
10 16.02 штиль 0 н/о слабый дождь {туман} 8/8 1000 м
[]
+22.2 +20.5 90 +29 +29 очень
душно
1007.9 962.8
12 16.02 В 3 н/о н/о +22.6 +21.6 94 +30 +30 очень
душно
1008.7 963.6
13 16.02 В 3 н/о {туман} 8/8 200 м
[]
+22.6 +21.8 95 +30 +30 очень
душно
1008.8 963.7 +28.4
15 16.02 В 3 н/о н/о +22.8 +21.6 93 +30 +30 очень
душно
1007.9 962.8
16 16.02 СВ 3 н/о 9/0
[]
+23.1 +21.4 90 +31 +31 очень
душно
1007.5 962.4
18 16.02 СВ 7 н/о н/о +22.2 +19.9 87 +28 +28 душно 1006.9 961.9
19 16.02 СВ 5 н/о {туман} 10/10 1500 м
[]
+21.9 +20.2 90 +28 +28 душно 1006.5 961.5
21 16.02 СВ 3 н/о н/о +21.7 +20.9 95 +28 +28 душно 1006.7 961.7
22 16.02 СВ 3 н/о в посл. час дождь со снегом {туман} 10/10 200 м
[]
+21.8 +21.0 95 +28 +28 душно 1006.9 961.9
00 17.02 С 5 н/о н/о +23.3 +21.2 88 +31 +31 очень
душно
1007.0 962.0
01 17.02 С 6 н/о {осадки} 9/9 300 м
[]
+24.2 +21.7 86 +31 +31 очень
душно
1006.9 961.9 +21.6 3
03 17.02 С 5 н/о н/о +26.6 +22.0 76 +34 +34 очень
душно
1006.2 961.2
04 17.02 С 7 н/о 4/4 600 м
[]
+28.6 +21.4 65 +36 +40 очень
душно
1005.4 960.4
06 17.02 С 6 н/о н/о +28.2 +22.0 69 +36 +36 очень
душно
1004.1 959.2
07 17.02 СВ 5 н/о в посл. час дождь со снегом 10/10 1000 м
[]
+30.1 +21.2 59 +38 +38 очень
душно
1003.5 958.6
09 17.02 СВ 5 н/о н/о +28.6 +21.6 66 +37 +37 очень
душно
1003.3 958.4
10 17.02 СВ 4 н/о ливневой дождь 6/0
[]
+28.0 +22.0 70 +36 +36 очень
душно
1003.8 958.9
12 17.02 СВ 3 н/о н/о +22.9 +22.1 95 +31 +31 очень
душно
1006.0 961.0
13 17.02 СВ 3 н/о {туман} 10/10 1000 м
[]
+23.2 +22.5 96 +32 +32 очень
душно
1006.7 961.7 +30.5
15 17.02 СВ 4 н/о н/о +23.7 +22.5 93 +31 +31 очень
душно
1006.1 961.1
16 17.02 СВ 4 н/о слабый дождь 10/10 600 м
[]
+23.6 +22.4 93 +31 +31 очень
душно
1005.6 960.6
18 17.02 СВ 3 н/о н/о +23.4 +22.4 94 +32 +32 очень
душно
1004.7 959.8
19 17.02 СВ 3 н/о ливневой дождь 10/10 200 м
[]
+23.3 +22.5 95 +32 +32 очень
душно
1004.6 959.7
21 17.02 СВ 4 н/о н/о +23.1 +22.3 95 +32 +32 очень
душно
1005.5 960.5
22 17.02 СВ 4 н/о 10/10 1000 м
[]
+23.4 +22.2 93 +32 +32 очень
душно
1005.9 960.9
00 18.02 СВ 5 н/о н/о +24.5 +22.4 88 +32 +32 очень
душно
1007.0 962.0
01 18.02 С 5 н/о 10/10 300 м
[]
+26.2 +22.5 80 +34 +34 очень
душно
1006.9 961.9 +22.9
03 18.02 С 6 н/о н/о +27.8 +21.6 69 +36 +36 очень
душно
1005.6 960.6
04 18.02 С 6 н/о {туман} 10/10 600 м
[]
+28.5 +21.8 67 +37 +37 очень
душно
1004.8 959.9
06 18.02 СВ 7 н/о н/о +30.6 +21.1 57 +38 +38 очень
душно
1002.8 958.0
07 18.02 С 7 6000 м слабый ливневой дождь со снегом {туман} 8/8 300 м
[]
+22.5 +22.2 98 +30 +31 очень
душно
1004.0 959.1
09 18.02 С 4 н/о н/о +24.5 +22.2 87 +32 +32 очень
душно
1004.0 959.1
10 18.02 С 4 н/о в посл. час дождь со снегом {туман} 9/0
[]
+24.4 +22.3 88 +32 +32 очень
душно
1004.4 959.5
12 18.02 СВ 3 н/о н/о +24.4 +23.0 92 +32 +32 очень
душно
1005.5 960.5
13 18.02 СВ 3 н/о {туман} 10/10 600 м
[]
+24.4 +22.5 89 +32 +32 очень
душно
1006.7 961.7 +31.7
15 18.02 С 4 н/о н/о +24.0 +21.7 87 +31 +31 очень
душно
1006.6 961.6
16 18.02 С 4 н/о {туман} 10/0
[]
+23.8 +21.9 89 +31 +31 очень
душно
1006.0 961.0
18 18.02 СВ 4 н/о н/о +23.6 +21.7 89 +30 +30 очень
душно
1005.0 960.1
19 18.02 С 4 н/о {туман} 10/0
[]
+23.4 +21.8 91 +32 +32 очень
душно
1005.3 960.3
21 18.02 СВ 3 н/о н/о +23.0 +22.2 95 +31 +31 очень
душно
1005.8 960.8
22 18.02 СВ 4 н/о 10/10 300 м
[]
+23.5 +22.1 92 +30 +30 очень
душно
1006.0 961.0
00 19.02 С 7 н/о н/о +25.9 +21.6 77 +33 +33 очень
душно
1006.2 961.2
01 19.02 С 6 н/о 1/1 600 м
[]
+27.5 +21.8 71 +35 +40 очень
душно
1006.2 961.2 +22.4
03 19.02 С 6 н/о н/о +29.5 +22.2 65 +38 +38 очень
душно
1005.1 960.2
04 19.02 С 6 н/о 10/10 1000 м
[]
+31.2 +22.2 59 +40 +40 очень
душно
1004.2 959.3
06 19.02 С 5 н/о н/о +28.2 +23.1 74 +38 +38 очень
душно
1002.8 958.0
07 19.02 С 6 н/о {туман} 4/4 1500 м
[]
+30.8 +21.3 57 +39 +41 очень
душно
1002.3 957.5
09 19.02 СВ 4 н/о н/о +29.8 +22.0 63 +38 +38 очень
душно
1003.2 958.3
10 19.02 З 4 н/о сильный ливневой дождь {туман} 10/10 1000 м
[]
+24.2 +22.1 88 +31 +31 очень
душно
1004.0 959.1
12 19.02 С 4 н/о н/о +23.9 +22.2 90 +31 +31 очень
душно
1005.3 960.3
13 19.02 С 3 н/о {туман} 9/0
[]
+24.3 +21.6 85 +31 +31 очень
душно
1005.8 960.8 +32.5
15 19.02 С 2 н/о н/о +24.5 +22.0 86 +32 +32 очень
душно
1006.0 961.0
16 19.02 СВ 2 н/о 10/0
[]
+24.4 +21.9 86 +31 +31 очень
душно
1005.5 960.5
18 19.02 С 2 н/о н/о +24.1 +22.2 89 +31 +31 очень
душно
1004.9 960.0
19 19.02 С 2 н/о 4/0
[]
+23.6 +22.2 92 +31 +31 очень
душно
1005.1 960.2
21 19.02 СЗ 2 н/о н/о +23.4 +22.0 92 +32 +32 очень
душно
1006.3 961.3
22 19.02 С 2 н/о 9/9 300 м
[]
+23.7 +22.3 92 +31 +31 очень
душно
1007.0 962.0
00 20.02 З 5 н/о н/о +25.7 +21.6 78 +33 +33 очень
душно
1007.8 962.7
01 20.02 СЗ 4 н/о туман местами 3/3 600 м
[]
+27.2 +21.0 69 +34 +42 очень
душно
1007.7 962.6 +23.5
03 20.02 З 3 н/о н/о +30.4 +20.3 55 +37 +37 очень
душно
1006.4 961.4
04 20.02 З 4 н/о н/о +30.8 +19.2 50 +36 +36 очень
душно
1005.8 960.8
06 20.02 З 4 н/о н/о +32.8 +17.8 41 +37 +37 очень
душно
1004.3 959.4
07 20.02 З 4 н/о н/о +32.6 +18.4 43 +37 +37 очень
душно
1004.0 959.1
09 20.02 З 3 н/о н/о +30.2 +18.6 50 +35 +35 очень
душно
1004.3 959.4
10 20.02 З 3 н/о н/о +28.6 +20.1 60 +35 +35 очень
душно
1004.5 959.6

 

Местоположение метеостанции Halls Creek Airport (Западная Австралия, Австралия): широта -18.23 долгота 127.66 высота над уровнем моря 424 м.

В архиве по умолчанию представлена погода в Halls Creek Airport за последнюю неделю. Архивные данные за месяц целиком и за предыдущие месяцы, начиная с января 2011 года, Вы можете получить, выбрав интересующий диапазон дат из раскрывающегося списка и нажав кнопку "Ввод!".

Внимание! Время в таблицах - всемирное. Для получения местного времени необходимо прибавить поправку, которая в Halls Creek Airport равна 8 ч.

Смотрите также архив погоды в соседних городах и на ближайших метеорологических станциях:

Погода в Argyle Aero (Западная Австралия, Австралия) (197 км)
Погода в Fitzroy Crossing Aero (Западная Австралия, Австралия) (222 км)
Погода в Kununurra (Западная Австралия, Австралия) (294 км)
Погода в Wyndham Aero (Западная Австралия, Австралия) (308 км)
Погода в Lajamanu (Северная территория, Австралия) (314 км)
Погода в Rabbit Flat (Северная территория, Австралия) (329 км)
Погода в Victoria River Downs (Северная территория, Австралия) (411 км)
Погода в Curtin Aero (Западная Австралия, Австралия) (413 км)
Погода в Derby Aero (Северная территория, Австралия) (435 км)
Погода в Kalumburu (Западная Австралия, Австралия) (450 км)

Пояснения к столбцам:

Ветер - указаны скорость ветра в м/с - средняя за 10 мин, порывы в срок и между сроками (в фигурных скобках) и направление, откуда дует ветер: С - северный, СВ - северо-восточный, В - восточный, ЮВ - юго-восточный, Ю - южный, ЮЗ - юго-западный, З - западный, СЗ - северо-западный.
Видимость - горизонтальная дальность видимости в метрах или километрах. При видимости от 1 до 10 км при отсутствии осадков обычно наблюдается дымка, при ухудшении видимости до 1 км и менее - туман. В сухую погоду видимость может ухудшаться дымом, пылью или мглою.
Явления - указаны атмосферные явления, наблюдавшиеся в срок или в последний час перед сроком; фигурными скобками обозначены явления, наблюдавшиеся между сроками (за 1-3 часа до срока); квадратными скобками обозначены град или гололедные отложения с указанием их диаметра в мм.
Облачность - указаны через наклонную черту общая и нижняя облачность в баллах и высота нижней границы облаков в метрах; квадратными скобками обозначены формы облаков: Ci - перистые, Cs - перисто-слоистые, Cc - перисто-кучевые, Ac - высококучевые, As - высокослоистые, Sc - слоисто-кучевые, Ns - слоисто-дождевые, Cu - кучевые, Cb - кучево-дождевые. Подробнее классификацию облаков см. в Атласе облаков (PDF).
T - Температура воздуха - температура, измеренная на высоте 2 м над землей.
Td - Температура точки росы - температура, при понижении до которой содержащийся в воздухе водяной пар достигнет насыщения.
f - Относительная влажность воздуха - влажноcть воздуха, измеренная на высоте 2 м над землей.
Te - Эффективная температура - температура, которую ощущает одетый по сезону человек в тени. Характеристика душности погоды. При расчете учитывается влияние влажности воздуха и скорости ветра на теплоощущения человека.
Tes - Эффективная температура на солнце - температура, которую ощущает человек, с поправкой на солнечный нагрев. Характеристика знойности погоды. Зависит от высоты солнца над горизонтом, облачности и скорости ветра. Ночью, в пасмурную погоду, а также при ветре 12 м/с и более поправка равна нулю.
P - Атмосферное давление - приведенное к уровню моря атмосферное давление.
Po - Атмосферное давление - измеренное на уровне метеостанции атмосферное давление.
Tmin - Минимальная температура - минимум температуры воздуха на высоте 2 м над землей.
Tmax - Максимальная температура - максимум температуры воздуха на высоте 2 м над землей.
R - Количество осадков - Количество выпавших осадков за период времени, мм. При наведении курсора мыши на число - период времени, за который выпало указанное количество осадков.
R24 - Количество осадков - Количество выпавших осадков за 24 часа, мм.
S - Снежный покров - Высота снежного покрова, см. При наведении курсора мыши на число - состояние снежного покрова и степень покрытия местности в баллах.